DW4758 Weather Reports


time (UTC)temp
C
wind
direction
speed
KPH
gust
KPH
rain 1hr
cm
rain 24hr
cm
rain mn
cm
humidity
%
barometer
mb
20260509101826 11 207 0.0 3.2 0.00 2.01 0.99 83 1006.8
20260509100324 12 207 0.0 0.0 0.00 2.01 0.99 82 1006.9
20260509094818 12 207 0.0 0.0 0.00 2.01 0.99 82 1006.8
20260509093318 12 207 0.0 0.0 0.03 2.01 0.99 82 1006.7
20260509091832 12 207 0.0 0.0 0.08 2.01 0.99 82 1006.9
20260509090328 13 271 0.0 0.0 0.13 2.01 0.99 82 1007.0
20260509084822 13 319 0.0 8.0 0.15 2.01 0.99 82 1007.2
20260509083316 13 217 14.5 17.7 0.15 1.98 0.97 82 1007.5
20260509081832 13 213 9.7 14.5 0.10 1.93 0.91 82 1007.4
20260509080329 13 232 12.9 19.3 0.05 1.88 0.86 82 1007.3
20260509074826 13 221 11.3 24.1 0.05 1.85 0.84 82 1007.4
20260509073323 13 209 8.0 16.1 0.03 1.83 0.81 82 1007.5
20260509071815 13 202 8.0 12.9 0.03 1.83 0.81 82 1007.4
20260509070315 13 210 3.2 12.9 0.03 1.83 0.81 82 1007.8
20260509064829 13 198 0.0 0.0 0.03 1.80 0.79 82 1008.0
20260509063328 13 200 0.0 0.0 0.10 1.80 0.79 82 1008.2
20260509061840 13 202 0.0 0.0 0.23 1.80 0.79 82 1008.2
20260509060317 13 202 0.0 0.0 0.33 1.80 0.79 82 1008.2
20260509054832 13 228 3.2 16.1 0.43 1.78 0.76 82 1008.7
20260509053328 13 215 0.0 9.7 0.46 1.70 0.69 82 1008.9
20260509051826 13 207 3.2 11.3 0.46 1.57 0.56 82 1009.2
20260509050322 13 217 0.0 9.7 0.43 1.47 0.46 82 1009.2
20260509044820 13 190 0.0 0.0 0.36 1.32 0.30 82 1009.1
20260509043316 13 190 0.0 11.3 0.28 1.24 0.23 82 1009.0
20260509041830 13 194 0.0 12.9 0.20 1.12 0.10 82 1009.0
20260509040326 13 163 0.0 9.7 0.20 1.04 0.03 82 1009.0
20260509034823 13 198 0.0 1.6 0.13 0.97 0.97 82 1009.0
20260509033317 13 146 0.0 3.2 0.13 0.97 0.97 82 1009.1
20260509031815 13 172 0.0 0.0 0.08 0.91 0.91 82 1009.3
20260509030331 13 190 0.0 0.0 0.03 0.84 0.84 81 1009.1
20260509024826 13 161 0.0 0.0 0.08 0.84 0.84 81 1009.2
20260509023326 13 199 0.0 0.0 0.20 0.84 0.84 81 1009.4
20260509021816 13 180 0.0 0.0 0.33 0.84 0.84 81 1009.2
20260509020317 13 207 0.0 0.0 0.36 0.81 0.81 81 1009.3
20260509014829 13 235 1.6 11.3 0.33 0.76 0.76 81 1009.4
20260509013327 13 205 0.0 12.9 0.20 0.64 0.64 81 1009.4
20260509011818 13 171 0.0 1.6 0.13 0.51 0.51 80 1009.2
20260509010316 14 223 0.0 0.0 0.08 0.46 0.46 80 1009.1
20260509004848 14 234 0.0 0.0 0.08 0.43 0.43 80 1009.3
20260509003321 14 238 0.0 4.8 0.13 0.43 0.43 80 1009.3
20260509001817 14 257 0.0 0.0 0.13 0.38 0.38 80 1008.9
20260509000333 13 259 0.0 0.0 0.18 0.38 0.38 80 1009.0
20260508234830 13 310 0.0 0.0 0.18 0.36 0.36 80 1009.5
20260508233323 14 355 0.0 0.0 0.18 0.30 0.30 80 1009.5
20260508231819 14 5 0.0 0.0 0.13 0.25 0.25 79 1009.4
20260508230314 14 333 0.0 0.0 0.10 0.20 0.20 79 1009.6
20260508224829 14 333 0.0 0.0 0.10 0.18 0.18 78 1009.7
20260508223328 15 333 0.0 0.0 0.10 0.13 0.13 77 1009.6
20260508221818 15 333 0.0 0.0 0.10 0.10 0.10 75 1009.0
20260508220338 15 336 0.0 4.8 0.10 0.10 0.10 73 1009.2
20260508214851 15 313 1.6 19.3 0.08 0.08 0.08 69 1009.5
20260508213327 17 300 0.0 24.1 0.03 0.03 0.03 61 1009.2
20260508211825 17 250 0.0 12.9 0.00 0.00 0.00 57 1009.0
20260508210339 17 231 0.0 12.9 0.00 0.00 0.00 58 1008.8
20260508204816 17 246 3.2 27.4 0.00 0.00 0.00 54 1008.9
20260508203352 18 236 19.3 32.2 0.00 0.00 0.00 45 1009.0
20260508201827 19 200 11.3 22.5 0.00 0.00 0.00 46 1009.0
20260508200321 19 228 6.4 22.5 0.00 0.00 0.00 44 1009.1
20260508194833 19 202 9.7 25.7 0.00 0.00 0.00 43 1009.1
20260508193331 19 243 17.7 24.1 0.00 0.00 0.00 45 1009.5
20260508191820 19 218 8.0 20.9 0.00 0.00 0.00 46 1009.6
20260508190318 19 240 11.3 25.7 0.00 0.00 0.00 46 1009.9
20260508184850 19 232 17.7 25.7 0.00 0.00 0.00 45 1010.1
20260508183327 19 214 12.9 19.3 0.00 0.00 0.00 45 1010.3
20260508181821 18 218 9.7 25.7 0.00 0.00 0.00 48 1010.4
20260508180354 18 231 17.7 30.6 0.00 0.00 0.00 48 1010.7
20260508174828 18 236 17.7 30.6 0.00 0.00 0.00 44 1010.8
20260508173323 19 232 14.5 25.7 0.00 0.00 0.00 47 1011.1
20260508171821 18 219 19.3 27.4 0.00 0.00 0.00 47 1011.2
20260508170318 17 223 22.5 32.2 0.00 0.00 0.00 47 1011.5
20260508164816 17 232 22.5 29.0 0.00 0.00 0.00 45 1011.8
20260508163332 17 188 17.7 27.4 0.00 0.00 0.00 49 1012.0
20260508161824 17 244 14.5 27.4 0.00 0.00 0.00 50 1012.4
20260508160325 17 231 19.3 25.7 0.00 0.00 0.00 48 1012.3
20260508154820 17 248 25.7 35.4 0.00 0.00 0.00 48 1012.5
20260508153321 17 222 19.3 37.0 0.00 0.00 0.00 49 1012.5
20260508151832 17 229 14.5 24.1 0.00 0.00 0.00 48 1012.5
20260508150330 17 238 16.1 29.0 0.00 0.00 0.00 48 1012.4
20260508144845 16 204 17.7 32.2 0.00 0.00 0.00 50 1012.6
20260508143320 16 225 19.3 32.2 0.00 0.00 0.00 49 1013.0
20260508141831 16 228 19.3 32.2 0.00 0.00 0.00 50 1013.0
20260508140325 16 246 19.3 33.8 0.00 0.00 0.00 52 1013.2
20260508134841 15 213 20.9 29.0 0.00 0.00 0.00 50 1013.1
20260508133316 15 232 20.9 32.2 0.00 0.00 0.00 49 1013.1
20260508131830 15 226 22.5 32.2 0.00 0.00 0.00 50 1013.3
20260508130325 14 242 20.9 33.8 0.00 0.00 0.00 49 1013.4
20260508124824 13 249 8.0 30.6 0.00 0.00 0.00 52 1013.4
20260508123340 13 227 11.3 24.1 0.00 0.00 0.00 52 1013.2
20260508121831 12 209 6.4 22.5 0.00 0.00 0.00 54 1013.3
20260508120349 12 197 12.9 24.1 0.00 0.00 0.00 54 1013.2
20260508114840 11 218 0.0 14.5 0.00 0.00 0.00 55 1013.2
20260508113317 11 216 0.0 8.0 0.00 0.00 0.00 56 1013.0
20260508111832 10 213 0.0 8.0 0.00 0.00 0.00 56 1013.0
20260508110328 10 188 1.6 6.4 0.00 0.00 0.00 57 1013.0
20260508104827 10 209 0.0 0.0 0.00 0.00 0.00 56 1012.9
20260508103322 10 215 0.0 1.6 0.00 0.00 0.00 54 1013.0